STARLINK-31968, 59927

Orbit data source: Space-Track

STARLINK-31968, 59927 is a payload satellite owned by SpaceX/Seattle (US) in LEO that was launched on Sat, 01 Jun 2024 UTC via an FALCON 9 launch vehicle from the Air Force Eastern Test Range (AFETR). Payload-class satellites include a variety of spacecraft equipped with specific instruments for various scientific and technological missions. These include communications satellites like Starlink; space stations such as the ISS; scientific satellites like the Hubble; Earth observation satellites from companies like Planet Labs, Umbra, and HawkEye 360; GPS; miniature CubeSats for education and research; and military/defense satellites.

Loading next visibility...
Identifier
59927, 2024-106F
Orbit
LEO
Country
Flag of USUS
Related business
Manufacturer
SpaceX/Seattle
Mission
Operational Commercial Communications
Bus & Motor
STARLINK V2M, Unknown motor
Mass
730 kg wet, ~700 kg dry
Launch date (UTC)
2024-06-01 (2 years ago)
Launch vehicle
FALCON 9
Launch site
Air Force Eastern Test Range (AFETR)
Object type
Payload
Rocket body
Debris
Shape & HBR
Box + 2 Pan, 17.7 m
Radar Cross Section
33.884 m², Large (>1 m²)

Expand to show TLE details & history
Last TLE update: 5 hours ago

TLE from 5 hours ago
0 STARLINK-31968
1 59927U 24106F   26127.98000949  .00000996  00000-0  45731-4 0  9990
2 59927  43.0010 357.4136 0001044 277.2462  82.8271 15.27576749109641
Epoch: 2026-05-07T23:31Z
TLE epoch observation values (Epoch: 2026-05-07T23:31:12.819Z)
Latitude
-0.00004°
Longitude
138.79178°
Altitude
482.745 km
Speed
7.626 km/s
True Right ascension
23h 49m 39s
True Declination
0° 00' 00"
Sunlit
Object was in daylight at epoch
Visualization orbit readout
Latitude
Unknown
Longitude
Unknown
Altitude
Unknown
Speed
Unknown
Apparent Right ascension
Unknown
Apparent Declination
Unknown
Sunlit
N/A
Visualization observer readout
Local Sidereal Time
12:18:59
Azimuth
Unknown
Elevation
Unknown
Doppler factor
Unknown
Orbital elements
Apogee altitude
485.72 km
Perigee altitude
484.287 km
Semi-major axis
6,863.141 km
Eccentricity
0.0001
Inclination
43.001°
RAAN
357.4136°
Arg. of periapsis
277.2462°
True anomaly
82.83897°
Mean anomaly
82.8271°
Eccentric anomaly
82.83303°
Mean motion
3.81732 °/min
Orbital period
94.31 mins
BSTAR
0.000045731
Loading maneuver chart data...
Computing Atmospheric mass density...
Loading historical data...
Loading historical data...
Loading historical data...
Loading historical data...
Loading historical data...
Loading historical data...
Loading historical data...

Documentation

Showing up to 5 results
|